TimeEST,TemperatureF,Dew PointF,Humidity,Sea Level PressureIn,VisibilityMPH,Wind Direction,Wind SpeedMPH,Gust SpeedMPH,PrecipitationIn,Events,Conditions,WindDirDegrees,DateUTC
12:15 AM,54.1,48.2,80,30.09,10.0,West,10.4,17.3,N/A,,Overcast,280,2013-02-11 05:15:00
12:35 AM,54.0,48.2,81,30.08,10.0,WNW,6.9,-,N/A,Rain,Rain,290,2013-02-11 05:35:00
12:55 AM,53.4,48.2,82,30.08,10.0,West,4.6,-,0.01,Rain,Light Rain,260,2013-02-11 05:55:00
1:15 AM,53.4,48.4,83,30.08,10.0,SW,6.9,-,N/A,Rain,Light Rain,230,2013-02-11 06:15:00
1:35 AM,51.8,49.1,90,30.07,10.0,WSW,4.6,-,0.01,Rain,Light Rain,250,2013-02-11 06:35:00
1:55 AM,53.1,48.4,84,30.04,10.0,South,3.5,-,0.01,Rain,Rain,180,2013-02-11 06:55:00
2:15 AM,51.8,48.9,90,30.05,10.0,SW,5.8,17.3,N/A,,Mostly Cloudy,220,2013-02-11 07:15:00
2:35 AM,52.9,48.6,85,30.05,10.0,WNW,4.6,-,N/A,Rain,Light Rain,290,2013-02-11 07:35:00
2:55 AM,51.4,49.1,92,30.06,10.0,West,6.9,-,N/A,Rain,Light Rain,270,2013-02-11 07:55:00
3:15 AM,51.3,49.1,92,30.06,10.0,NW,5.8,-,N/A,Rain,Light Rain,320,2013-02-11 08:15:00
3:35 AM,50.9,49.3,94,30.05,10.0,Calm,Calm,-,0.01,Rain,Light Rain,0,2013-02-11 08:35:00
3:55 AM,50.5,49.3,95,30.06,3.0,WSW,3.5,-,0.03,Rain,Rain,250,2013-02-11 08:55:00
4:15 AM,50.0,49.1,97,30.07,10.0,Calm,Calm,-,N/A,Rain,Light Rain,0,2013-02-11 09:15:00
4:35 AM,50.2,49.1,96,30.08,10.0,Calm,Calm,-,N/A,,Drizzle,0,2013-02-11 09:35:00
4:55 AM,50.0,49.5,98,30.07,10.0,Calm,Calm,-,0.01,Rain,Light Rain,0,2013-02-11 09:55:00
5:15 AM,49.8,49.3,98,30.06,10.0,Calm,Calm,-,N/A,Rain,Light Rain,0,2013-02-11 10:15:00
5:35 AM,49.5,49.3,99,30.04,10.0,NE,4.6,-,N/A,Rain,Rain,50,2013-02-11 10:35:00
5:55 AM,49.5,49.3,99,30.04,10.0,Calm,Calm,-,N/A,,Overcast,0,2013-02-11 10:55:00
6:15 AM,49.6,49.3,99,30.05,10.0,Calm,Calm,-,N/A,,Overcast,0,2013-02-11 11:15:00
6:55 AM,49.3,49.1,99,30.05,4.0,Calm,Calm,-,0.01,Rain,Rain,0,2013-02-11 11:55:00
7:15 AM,49.3,49.1,99,30.06,4.0,Calm,Calm,-,N/A,,Light Drizzle,0,2013-02-11 12:15:00
7:35 AM,49.5,49.3,99,30.06,5.0,Calm,Calm,-,N/A,,Overcast,0,2013-02-11 12:35:00
7:55 AM,49.5,49.3,99,30.07,5.0,Calm,Calm,-,N/A,,Overcast,0,2013-02-11 12:55:00
8:15 AM,49.1,49.1,100,30.07,1.2,Calm,Calm,-,N/A,,Drizzle,0,2013-02-11 13:15:00
8:35 AM,49.5,49.3,99,30.07,1.2,Calm,Calm,-,N/A,,Overcast,0,2013-02-11 13:35:00
8:55 AM,49.5,49.3,99,30.06,1.0,Calm,Calm,-,N/A,,Drizzle,0,2013-02-11 13:55:00
9:15 AM,49.6,49.6,100,30.07,1.8,Calm,Calm,-,N/A,,Drizzle,0,2013-02-11 14:15:00
9:35 AM,50.0,50.0,100,30.08,1.8,Calm,Calm,-,N/A,,Drizzle,0,2013-02-11 14:35:00
9:55 AM,50.2,50.0,99,30.07,1.2,Calm,Calm,-,N/A,,Drizzle,0,2013-02-11 14:55:00
10:15 AM,50.9,50.7,99,30.08,1.5,WSW,4.6,-,N/A,,Drizzle,240,2013-02-11 15:15:00
10:35 AM,52.3,52.0,99,30.09,5.0,West,3.5,-,N/A,,Overcast,270,2013-02-11 15:35:00
10:55 AM,53.6,51.4,92,30.10,10.0,WSW,8.1,18.4,N/A,,Overcast,240,2013-02-11 15:55:00
11:15 AM,53.6,50.4,89,30.11,10.0,SW,11.5,-,N/A,,Overcast,220,2013-02-11 16:15:00
11:35 AM,54.0,50.0,86,30.08,10.0,SW,5.8,-,N/A,,Overcast,220,2013-02-11 16:35:00
11:55 AM,54.1,49.6,85,30.08,10.0,South,6.9,-,N/A,,Overcast,170,2013-02-11 16:55:00
12:15 PM,54.3,49.5,84,30.08,10.0,Calm,Calm,-,N/A,,Overcast,0,2013-02-11 17:15:00
12:35 PM,54.5,49.3,83,30.07,10.0,NW,3.5,-,N/A,,Overcast,320,2013-02-11 17:35:00
12:55 PM,54.3,49.1,83,30.11,10.0,SW,8.1,-,N/A,,Overcast,230,2013-02-11 17:55:00
1:15 PM,54.0,49.1,84,30.10,10.0,SW,8.1,-,N/A,,Overcast,230,2013-02-11 18:15:00
1:35 PM,54.0,49.3,84,30.09,10.0,SSW,5.8,-,N/A,,Mostly Cloudy,210,2013-02-11 18:35:00
1:55 PM,54.5,49.3,83,30.08,10.0,SSW,6.9,-,N/A,,Clear,210,2013-02-11 18:55:00
2:15 PM,54.9,49.3,81,30.07,10.0,SW,5.8,-,N/A,,Clear,230,2013-02-11 19:15:00
2:35 PM,54.5,46.6,75,30.06,10.0,SW,9.2,-,N/A,,Clear,220,2013-02-11 19:35:00
2:55 PM,54.5,46.4,74,30.08,10.0,SW,5.8,-,N/A,,Scattered Clouds,230,2013-02-11 19:55:00
3:15 PM,54.1,44.1,69,30.07,10.0,SW,6.9,-,N/A,,Scattered Clouds,230,2013-02-11 20:15:00
3:35 PM,54.5,46.0,73,30.06,10.0,West,5.8,-,N/A,,Clear,260,2013-02-11 20:35:00
3:55 PM,54.5,41.9,62,30.07,10.0,SW,9.2,-,N/A,,Clear,230,2013-02-11 20:55:00
4:15 PM,53.8,40.6,61,30.07,10.0,SW,10.4,-,N/A,,Clear,230,2013-02-11 21:15:00
4:35 PM,52.9,41.2,64,30.08,10.0,SW,9.2,-,N/A,,Clear,230,2013-02-11 21:35:00
4:55 PM,52.7,40.3,63,30.07,10.0,SSW,6.9,-,N/A,,Clear,210,2013-02-11 21:55:00
5:55 PM,49.3,43.3,80,30.07,10.0,Calm,Calm,-,N/A,,Clear,0,2013-02-11 22:55:00
6:15 PM,48.2,43.7,84,30.07,10.0,Calm,Calm,-,N/A,,Clear,0,2013-02-11 23:15:00
6:35 PM,45.1,42.8,91,30.08,10.0,Calm,Calm,-,N/A,,Clear,0,2013-02-11 23:35:00
6:55 PM,43.7,41.4,91,30.09,10.0,East,3.5,-,N/A,,Clear,80,2013-02-11 23:55:00
7:15 PM,42.6,41.2,95,30.08,10.0,Calm,Calm,-,N/A,,Clear,0,2013-02-12 00:15:00
7:35 PM,43.3,40.8,91,30.08,10.0,Calm,Calm,-,N/A,,Clear,0,2013-02-12 00:35:00
7:55 PM,40.6,39.2,95,30.09,10.0,Calm,Calm,-,N/A,,Clear,0,2013-02-12 00:55:00
8:15 PM,41.0,39.7,95,30.10,10.0,Calm,Calm,-,N/A,,Clear,0,2013-02-12 01:15:00
8:35 PM,39.0,37.9,96,30.10,10.0,Calm,Calm,-,N/A,,Clear,0,2013-02-12 01:35:00
8:55 PM,39.6,38.5,96,30.10,10.0,Calm,Calm,-,N/A,,Clear,0,2013-02-12 01:55:00
9:15 PM,38.5,37.6,97,30.11,10.0,Calm,Calm,-,N/A,,Clear,0,2013-02-12 02:15:00
9:35 PM,38.5,38.3,99,30.10,10.0,Calm,Calm,-,N/A,,Clear,0,2013-02-12 02:35:00
9:55 PM,39.4,38.5,97,30.10,10.0,Calm,Calm,-,N/A,,Clear,0,2013-02-12 02:55:00
10:15 PM,39.2,38.3,97,30.11,10.0,Calm,Calm,-,N/A,,Clear,0,2013-02-12 03:15:00
10:35 PM,38.7,37.9,97,30.09,10.0,Calm,Calm,-,N/A,,Clear,0,2013-02-12 03:35:00
10:55 PM,38.8,38.3,98,30.08,10.0,Calm,Calm,-,N/A,,Clear,0,2013-02-12 03:55:00
11:15 PM,38.3,37.8,98,30.11,10.0,West,4.6,-,N/A,,Clear,260,2013-02-12 04:15:00
11:35 PM,38.5,38.1,99,30.11,10.0,Calm,Calm,-,N/A,,Clear,0,2013-02-12 04:35:00
11:55 PM,37.4,37.0,99,30.09,10.0,NE,4.6,-,N/A,,Clear,40,2013-02-12 04:55:00